Flag for Switzerland Weather past 2 weeks in Vernier, Geneva, Switzerland

Now
66 °F

Scattered clouds.


Feels Like: 66 °F
Forecast: 52 / 67 °F
Wind: 6 mph from East

Location: Geneva Cointrin Airport

Current Time: Sep 2, 2015 at 7:43:34 PM

Latest Report: Sep 2, 2015 at 7:20 PM


Visibility: N/A

Pressure: 30.01 "Hg

Humidity: 73%

Dew point: 57 °F

Location of VernierLocation

Historic Weather in Vernier — Graph

°F

Vernier temperature yesterday

Maximum temperature yesterday: 73 °F (at 3:50 AM)
Minimum temperature yesterday: 61 °F (at 10:50 PM)
Average temperature yesterday: 69 °F

Past Weeks' High & Low Weather Summary

 TemperatureHumidityPressure
High90 °F (Aug 28, 4:50 PM)94% (Aug 24, 1:50 AM)30.24 "Hg (Aug 24, 1:50 AM)
Low50 °F (Aug 20, 4:20 AM)25% (Aug 31, 3:50 PM)29.74 "Hg (Aug 24, 4:20 AM)
Average68 °F63%30.06 "Hg
* Reported Aug 18 6:20 PM — Sep 2 6:20 PM, Vernier, Weather by CustomWeather, © 2015

Note: Actual official high and low records may vary slightly from our data, if they occured in-between our weather recording intervals... More about our weather records

Advertising

Vernier weather history for previous 24 hours

 ConditionsComfort  
Time TempWeatherWind HumidityBarometerVisibility
6:20 PM
Wed, Sep 2
66 °FScattered clouds.6 mph73%30.01 "HgN/A
5:50 PM66 °FScattered clouds.6 mph73%30.01 "HgN/A
5:20 PM66 °FScattered clouds.6 mph73%30.01 "HgN/A
4:50 PM66 °FScattered clouds.6 mph73%30.01 "HgN/A
4:20 PM66 °FScattered clouds.6 mph73%30.01 "HgN/A
3:50 PM66 °FScattered clouds.6 mph73%30.01 "HgN/A
3:20 PM66 °FScattered clouds.6 mph73%30.01 "HgN/A
2:50 PM66 °FScattered clouds.6 mph73%30.01 "HgN/A
2:20 PM66 °FPassing clouds.6 mph73%30.01 "HgN/A
1:50 PM72 °FPassing clouds.7 mph53%30.01 "HgN/A
1:20 PM66 °FPassing clouds.6 mph73%30.01 "HgN/A
12:50 PM66 °FPassing clouds.6 mph73%30.01 "HgN/A
12:20 PM66 °FPassing clouds.6 mph73%30.01 "HgN/A
11:50 AM66 °FPassing clouds.6 mph73%30.01 "HgN/A
11:20 AM66 °FScattered clouds.6 mph73%30.01 "HgN/A
10:50 AM66 °FScattered clouds.6 mph73%30.01 "HgN/A
10:20 AM66 °FScattered clouds.6 mph68%30.01 "HgN/A
9:50 AM64 °FScattered clouds.3 mph78%30.01 "HgN/A
9:20 AM64 °FPassing clouds.3 mph73%30.04 "HgN/A
8:50 AM59 °FPassing clouds.2 mph88%30.04 "HgN/A
8:20 AM57 °FScattered clouds.1 mph88%30.04 "HgN/A
7:50 AM55 °FPassing clouds.2 mph88%30.04 "HgN/A
7:20 AM55 °FPartly cloudy.1 mph88%30.04 "HgN/A
6:50 AM55 °FPassing clouds.1 mph94%30.04 "HgN/A
6:20 AM55 °FPassing clouds.2 mph94%30.04 "HgN/A
5:50 AM55 °FPassing clouds.2 mph94%30.04 "HgN/A
5:20 AM57 °FPassing clouds.3 mph88%30.04 "HgN/A
4:50 AM57 °FPartly cloudy.2 mph88%30.04 "HgN/A
4:20 AM57 °FPartly cloudy.2 mph88%30.04 "HgN/A
3:50 AM57 °FPassing clouds.2 mph94%30.07 "HgN/A
2:50 AM59 °FPassing clouds.1 mph94%30.07 "HgN/A
2:20 AM59 °FPassing clouds.No wind94%30.07 "HgN/A
1:50 AM59 °FPassing clouds.No wind94%30.07 "HgN/A
1:20 AM61 °FPassing clouds.2 mph88%30.07 "HgN/A
12:50 AM59 °FPassing clouds.1 mph94%30.09 "HgN/A
11:20 PM
Tue, Sep 1
61 °FPassing clouds.2 mph94%30.09 "HgN/A
10:50 PM61 °FPassing clouds.2 mph94%30.09 "HgN/A
10:20 PM63 °FPassing clouds.6 mph88%30.09 "HgN/A
9:50 PM63 °FSprinkles. Partly cloudy.2 mph88%30.09 "HgN/A
9:20 PM63 °FSprinkles. Passing clouds.2 mph88%30.09 "HgN/A
8:50 PM63 °FSprinkles. Partly sunny.1 mph88%30.07 "HgN/A
8:20 PM63 °FRain showers. Broken clouds.5 mph88%30.07 "Hg3 mi
7:50 PM64 °FSprinkles. Broken clouds.1 mph88%30.07 "HgN/A
7:20 PM66 °FSprinkles. Partly sunny.6 mph83%30.07 "HgN/A
Weather by CustomWeather, © 2015

See weather overviewHow to use our weather pages